Temperature
9 9 10 11 12 14 14 14 14 15 15 15 14 15 16 17 17 17 17 18 18 18 17 17 16 16 16 16 16 16 16 16 16 16 16 15 15 16 16 16 16 16 16 15
8 9 11 13 13 14 14 14 14 14 14 14 14 14 15 16 16 16 16 17 17 16 16 15 15 15 15 15 15 15 15 16 16 16 16 15 15 15 15 15 16 16 16 15
9 10 12 13 13 13 14 14 14 13 13 13 14 13 14 15 15 15 15 15 15 15 15 14 13 13 13 13 14 15 15 15 15 15 16 15 15 15 15 14 15 15 15 15
9 10 11 12 12 13 13 14 15 13 12 11 12 12 14 13 13 13 14 14 14 14 13 13 12 12 12 12 13 14 14 14 15 15 15 15 15 14 14 14 14 14 14 14
8 9 10 11 11 13 12 14 13 13 12 12 12 11 13 13 12 12 13 14 13 13 12 12 11 11 11 11 12 13 13 13 13 14 14 14 14 14 14 13 13 13 13 13
8 9 9 10 11 12 12 12 12 12 11 10 12 12 13 12 12 12 13 13 13 12 12 11 11 10 10 11 12 12 12 12 12 12 12 12 12 13 13 13 13 13 13 13
7 7 8 9 9 10 11 10 9 9 9 10 13 13 13 13 13 13 12 13 12 12 11 11 10 10 10 10 11 11 11 11 11 11 11 11 11 11 11 11 12 12 12 12
7 7 7 8 9 9 10 10 10 10 10 11 11 11 13 13 13 13 13 12 12 11 11 10 10 9 9 9 10 10 10 10 10 10 10 10 10 10 10 10 10 10 11 11
8 7 8 8 9 10 9 9 10 10 11 11 10 12 11 12 12 12 12 12 12 11 10 10 9 9 9 9 9 9 9 9 9 9 9 9 9 9 9 9 9 9 10 10
10 7 8 8 9 9 9 10 9 8 9 11 12 11 10 10 10 11 11 12 12 11 10 9 9 8 8 8 8 8 8 8 8 8 8 8 8 8 8 8 8 8 9 9
10 8 8 8 8 8 9 9 9 9 10 9 11 11 13 11 11 11 12 12 11 11 10 9 8 8 7 7 7 7 7 7 7 7 7 7 7 7 7 7 7 7 8 8
11 9 8 8 9 9 10 10 9 8 9 9 9 10 13 12 12 12 12 12 11 10 9 8 7 7 6 6 6 6 6 6 6 6 6 6 6 6 7 7 7 7 7 7
11 8 7 7 8 8 9 10 10 9 8 8 9 10 12 11 12 12 12 11 11 10 8 8 7 6 5 5 5 5 5 6 6 6 6 6 6 6 6 6 6 6 6 6
11 9 8 8 9 8 8 9 9 8 6 8 9 10 11 11 11 12 12 11 10 9 8 7 6 5 5 4 4 4 5 5 5 5 5 5 5 5 5 5 6 6 6 6
10 9 9 9 10 9 8 9 9 7 8 8 10 11 11 11 12 12 12 11 10 9 8 6 5 5 4 4 4 4 4 4 4 4 5 5 4 4 4 5 5 5 5 4
10 9 8 8 9 9 8 9 9 8 8 9 9 10 12 12 12 12 11 11 10 9 7 6 5 4 3 3 3 3 3 4 4 4 4 4 4 4 4 4 3 3 3 3
9 8 8 8 9 8 6 8 8 8 9 9 8 9 11 11 11 11 11 10 9 8 7 5 4 3 3 3 2 3 3 3 3 3 3 3 3 3 2 2 2 2 2 2
9 8 7 8 7 6 9 10 10 9 9 10 10 11 11 11 11 10 10 9 8 7 6 5 4 3 2 2 2 2 2 2 2 2 2 2 2 2 1 1 1 1 1 1
9 9 8 7 7 8 10 9 10 9 9 10 10 10 11 11 10 9 9 8 7 6 5 4 3 3 2 2 1 2 1 1 1 1 1 1 1 1 1 1 1 1 0 0
9 8 7 7 7 8 9 10 10 10 9 10 10 10 10 10 8 8 7 7 7 6 5 4 3 2 2 2 1 1 1 1 1 1 1 1 1 1 1 1 0 0 0 -0
7 7 7 7 7 8 10 9 9 8 9 9 10 10 10 9 8 8 7 6 6 5 4 3 3 2 2 1 1 1 1 1 1 1 1 1 1 1 0 0 0 -0 -0 -1
7 7 7 7 7 7 9 9 9 9 9 9 9 9 8 8 8 7 6 6 5 5 4 3 3 2 2 2 1 1 1 1 1 1 0 0 0 0 0 -0 -0 -1 -1 -1
8 8 8 8 8 9 10 9 9 9 9 8 8 8 8 7 7 6 6 5 5 5 4 3 3 2 2 2 1 1 1 1 1 0 0 0 0 0 -0 -0 -1 -1 -1 -2
9 9 9 9 9 10 9 9 9 8 8 8 8 8 7 7 6 6 6 5 5 4 4 4 3 2 2 2 2 1 1 1 1 0 0 0 0 -0 -0 -0 -1 -1 -1 -2
9 8 8 8 9 9 9 9 8 8 7 7 7 7 7 7 6 6 5 5 5 4 4 3 3 3 2 2 2 1 1 1 1 0 0 0 -0 -0 -0 -1 -1 -1 -2 -2
9 8 8 8 9 9 8 8 8 7 7 7 6 6 6 6 6 5 5 5 4 4 4 4 3 3 2 2 2 1 1 1 1 0 0 0 -0 -0 -0 -1 -1 -1 -2 -2
Wind_Speed
9 9 13 18 19 11 13 15 14 12 8 11 11 10 10 7 8 9 9 8 6 4 2 3 3 4 4 3 3 4 4 3 2 2 3 4 5 6 6 6 10 11 11 11
7 12 14 14 16 12 7 14 12 8 7 7 8 11 10 8 7 6 6 5 2 1 3 4 4 3 3 4 5 4 5 5 4 2 1 2 3 4 6 7 9 13 13 12
7 8 12 13 13 12 9 9 9 10 6 3 4 7 13 6 4 2 3 3 1 2 3 5 5 6 6 7 7 6 6 6 6 5 4 3 2 2 3 4 6 8 12 13
3 3 11 12 12 11 7 3 5 11 8 6 8 5 9 9 7 7 6 5 5 4 6 6 6 6 6 5 5 6 6 6 5 5 4 4 4 4 5 4 5 6 9 11
3 4 9 12 10 8 3 4 6 7 5 3 7 5 4 10 9 9 8 8 7 7 6 6 5 4 5 4 4 5 5 5 4 4 5 4 5 5 5 5 6 6 6 8
4 3 2 3 3 4 6 7 6 1 1 4 9 8 5 8 12 11 9 9 8 7 5 6 5 4 4 4 4 5 5 5 5 5 5 5 5 6 6 7 6 6 5 5
5 4 2 2 6 3 6 7 4 4 4 6 6 6 4 8 13 12 11 9 7 6 5 5 5 5 5 5 5 5 6 6 7 7 6 6 6 5 6 6 6 6 5 5
5 4 2 1 3 5 6 4 2 4 6 4 2 5 1 9 11 11 10 8 6 5 5 5 5 4 4 5 6 6 6 6 6 7 7 6 7 5 4 5 6 6 5 5
5 4 4 2 1 3 5 4 2 2 3 2 6 5 5 7 9 9 8 7 7 6 5 5 4 5 5 5 6 6 6 6 7 7 7 6 7 6 6 7 6 5 5 5
5 6 4 3 3 1 0 1 2 2 2 3 7 8 9 12 11 9 9 8 7 6 5 5 4 4 4 4 4 5 6 6 7 8 7 7 7 7 7 6 7 7 7 7
6 5 5 5 6 6 4 3 3 3 3 2 2 1 2 16 12 11 8 7 6 5 5 4 4 4 4 4 5 5 6 6 7 7 7 7 7 8 8 7 8 8 8 8
2 4 4 3 2 2 4 5 5 3 3 3 2 1 2 11 10 8 8 7 6 6 5 4 3 3 4 4 5 5 6 6 6 6 7 7 8 8 8 9 9 9 9 10
2 5 5 3 2 3 4 6 5 2 1 2 2 2 3 9 9 7 6 6 6 7 5 3 3 3 4 4 4 5 6 6 6 6 7 8 8 8 9 9 9 10 10 10
2 2 2 1 1 6 5 8 7 5 4 4 4 4 6 7 7 7 6 5 5 6 6 4 3 3 4 4 5 5 5 6 6 7 7 7 8 8 8 8 9 10 10 10
1 1 0 1 1 3 5 8 10 9 7 5 2 3 7 8 6 5 4 4 5 6 6 5 3 3 3 4 5 5 5 6 6 6 7 7 7 7 8 8 9 9 10 11
1 1 1 1 3 3 5 8 10 10 11 9 6 5 2 3 5 3 3 3 3 6 7 6 4 3 4 4 4 4 5 5 6 6 7 6 7 7 8 8 9 10 10 10
2 2 2 2 4 2 7 12 14 10 8 10 11 8 4 4 4 2 1 2 3 7 6 6 5 4 4 4 4 4 5 5 6 6 6 6 7 7 8 8 9 10 9 10
3 3 2 1 2 6 4 2 6 11 11 9 7 5 4 2 1 1 2 3 6 7 6 5 5 5 4 4 4 5 5 6 6 6 6 6 6 7 7 8 9 8 8 8
2 3 2 2 4 6 4 4 4 5 6 10 10 6 2 1 1 1 4 6 6 6 6 6 5 5 4 5 5 5 5 6 6 6 6 6 6 7 7 7 7 6 7 7
2 2 2 2 3 3 2 5 4 3 3 4 6 6 4 3 2 3 6 7 7 7 6 6 5 5 5 4 5 6 6 6 6 5 5 5 6 6 6 6 6 5 5 5
4 3 4 4 4 5 3 6 4 3 2 5 6 5 3 2 2 5 7 6 6 6 6 5 5 5 4 5 5 6 6 5 5 5 5 5 5 5 5 5 4 4 4 5
7 5 5 5 5 5 6 5 3 3 5 5 5 4 4 3 4 5 6 6 7 6 6 6 5 5 4 5 6 6 5 4 5 5 5 4 4 4 4 4 3 3 3 3
7 6 4 5 5 2 5 4 5 4 4 3 3 3 2 2 2 4 5 7 7 7 7 6 6 6 5 5 6 6 5 5 5 5 5 4 4 4 4 3 2 2 2 2
5 5 2 3 3 5 6 4 4 4 3 4 3 2 0 1 2 3 5 6 7 7 7 7 7 7 6 6 6 7 7 6 6 6 5 4 4 4 3 3 3 3 3 3
3 5 4 5 4 3 5 5 5 5 5 4 2 1 1 2 2 4 5 6 7 7 7 7 7 7 8 8 7 8 7 7 6 6 5 4 4 4 4 4 4 4 3 3
4 5 5 4 2 3 4 5 6 5 4 3 1 1 2 2 3 3 4 6 7 7 7 8 8 8 8 8 8 8 7 7 7 6 5 4 4 4 4 4 3 5 4 5
Wind_Direction
177 182 189 191 198 200 188 199 203 201 165 188 212 227 237 195 197 228 244 246 236 213 136 77 44 20 5 352 339 324 319 294 247 211 200 201 208 210 209 212 222 231 236 232
167 200 196 193 204 229 236 201 203 148 134 175 218 231 233 220 217 229 256 269 260 76 67 63 50 41 13 10 6 343 336 332 328 314 253 223 223 221 215 212 216 222 229 237
181 186 192 195 199 211 233 210 186 139 130 213 249 245 226 204 206 212 261 282 25 73 93 93 77 59 45 38 22 359 354 345 340 343 338 320 295 268 244 231 219 216 219 224
181 176 184 189 195 200 205 222 148 133 146 201 198 242 197 174 180 191 195 181 145 117 93 82 69 60 58 45 17 350 343 333 330 335 325 310 288 270 257 252 241 228 219 218
142 165 177 187 194 196 156 108 108 138 200 230 189 235 201 155 180 185 176 156 131 117 110 104 90 75 73 57 19 345 335 332 337 334 317 300 289 284 290 290 278 262 243 228
91 66 94 171 153 140 126 105 91 102 215 244 207 207 212 185 183 168 157 140 131 124 122 115 104 84 69 48 18 347 341 348 352 343 327 308 295 297 303 301 296 290 282 264
100 82 41 68 116 132 163 140 142 170 200 234 192 198 253 167 156 153 146 137 131 135 132 103 80 52 43 32 11 354 359 357 355 350 340 329 319 308 296 293 291 292 291 288
132 133 137 110 148 166 190 197 186 187 194 178 166 212 117 106 119 120 120 124 137 144 120 104 86 59 36 26 16 6 0 355 354 350 340 335 331 324 312 311 309 304 299 294
132 114 117 116 91 149 169 214 352 328 292 164 196 173 99 112 120 129 142 158 165 147 125 105 81 62 39 28 19 4 357 359 360 353 344 345 346 344 336 329 324 321 322 324
108 118 136 135 125 12 307 165 145 167 221 241 189 181 184 174 171 171 174 174 157 140 127 106 83 66 48 34 20 12 11 8 6 2 359 2 356 352 345 343 346 349 354 359
112 118 138 162 188 178 167 181 211 222 270 260 226 176 152 169 169 171 168 142 127 124 111 96 78 67 58 40 30 26 19 16 14 6 5 11 7 3 5 9 7 7 10 14
101 122 137 149 108 320 225 202 186 190 232 221 267 335 68 144 144 144 136 131 133 123 112 104 93 75 64 50 38 36 30 22 16 12 19 22 17 18 21 21 20 22 26 28
126 123 129 153 194 216 238 230 215 174 13 244 228 146 89 114 124 137 145 150 145 139 134 126 108 90 70 54 46 45 39 28 21 25 32 30 27 28 29 29 30 32 35 36
0 166 191 172 125 160 193 205 201 171 191 222 224 152 162 150 159 163 158 158 144 141 135 119 98 95 82 65 56 49 41 33 33 40 40 36 32 32 35 37 39 42 44 45
274 212 166 69 64 148 193 200 199 200 208 215 248 167 175 175 168 149 152 150 152 148 139 129 114 89 79 73 64 57 51 40 42 50 49 42 40 40 43 45 47 49 51 53
227 182 122 239 206 224 242 225 211 211 221 236 267 280 262 132 132 158 179 164 169 144 135 131 125 109 87 77 68 65 60 50 53 57 55 51 51 52 52 52 54 57 57 56
185 173 184 223 150 268 253 226 214 207 200 208 225 229 208 175 177 176 154 164 144 128 130 135 133 113 93 84 74 73 72 66 64 64 59 56 58 58 56 62 63 62 61 62
191 187 202 241 167 244 234 79 191 209 217 211 217 210 186 177 140 109 126 129 126 128 135 134 124 113 104 100 94 87 82 81 77 72 67 64 68 70 69 70 70 68 66 66
248 195 214 226 251 267 204 170 166 186 223 211 215 220 220 143 299 198 102 94 108 116 115 116 114 118 112 105 102 96 86 82 80 75 71 69 78 82 80 78 74 72 76 73
243 238 234 225 252 268 99 128 144 179 231 157 174 181 176 160 210 177 129 112 108 107 109 116 120 115 111 109 108 105 97 89 84 80 75 73 81 90 90 87 85 85 86 84
183 207 222 236 248 273 132 136 147 193 146 92 94 106 122 153 142 138 135 128 127 125 124 123 123 120 119 112 107 109 108 100 94 91 87 87 93 100 104 102 101 103 97 92
186 194 199 201 225 242 142 149 183 125 100 88 82 76 79 90 106 132 141 139 138 138 140 141 135 128 120 116 121 122 120 114 110 111 110 108 107 106 104 100 99 109 113 105
194 206 198 200 209 136 153 132 105 105 108 105 96 76 83 133 169 166 162 158 160 160 159 154 148 142 138 137 140 143 146 140 135 131 128 125 118 112 115 107 91 82 83 88
201 206 235 258 224 174 164 144 126 114 112 101 95 88 138 222 200 184 176 171 168 167 164 161 158 160 162 161 157 154 156 158 152 146 144 141 131 119 100 84 65 67 59 66
197 170 206 242 243 181 173 163 143 120 106 99 87 89 263 266 236 205 191 180 175 171 166 166 171 174 169 163 160 156 161 163 158 152 149 143 134 124 103 82 66 81 69 82
217 196 195 220 205 177 153 136 122 123 123 114 107 290 281 256 250 222 203 185 175 172 170 174 179 176 166 163 163 163 166 166 159 158 161 157 147 137 133 128 102 83 109 88
Height
1467 1471 1471 1471 1472 1471 1475 1481 1483 1484 1483 1490 1494 1495 1493 1492 1495 1497 1498 1498 1500 1501 1503 1504 1505 1507 1508 1509 1511 1512 1514 1516 1517 1518 1519 1520 1520 1521 1522 1523 1524 1525 1526 1527
1469 1468 1467 1468 1472 1471 1472 1477 1479 1482 1486 1489 1493 1493 1490 1489 1491 1493 1495 1496 1497 1498 1499 1501 1502 1504 1505 1506 1507 1508 1510 1511 1512 1514 1514 1515 1516 1516 1517 1517 1518 1519 1519 1521
1465 1464 1465 1468 1471 1473 1473 1473 1475 1483 1489 1490 1493 1493 1489 1487 1489 1491 1492 1494 1495 1496 1498 1500 1501 1502 1502 1502 1503 1504 1505 1506 1507 1508 1509 1510 1510 1511 1511 1512 1512 1513 1513 1514
1465 1464 1466 1469 1472 1473 1476 1471 1472 1481 1492 1496 1496 1499 1484 1485 1488 1490 1491 1493 1494 1496 1498 1499 1500 1500 1500 1500 1500 1501 1501 1502 1502 1503 1503 1504 1504 1505 1506 1507 1507 1508 1508 1508
1466 1466 1467 1471 1472 1473 1476 1474 1477 1483 1490 1491 1492 1497 1485 1483 1488 1489 1490 1492 1494 1496 1497 1499 1499 1500 1499 1499 1498 1498 1498 1498 1498 1499 1499 1499 1500 1500 1501 1501 1502 1502 1502 1502
1468 1470 1471 1472 1474 1475 1476 1480 1485 1488 1492 1499 1488 1493 1485 1481 1481 1484 1487 1490 1493 1495 1497 1498 1499 1499 1498 1497 1497 1496 1496 1496 1496 1495 1495 1495 1495 1495 1495 1495 1495 1496 1496 1497
1471 1474 1475 1475 1478 1480 1479 1487 1497 1501 1502 1497 1478 1483 1478 1470 1473 1479 1485 1489 1492 1495 1496 1497 1497 1497 1496 1495 1494 1494 1493 1493 1492 1492 1492 1491 1491 1490 1489 1489 1489 1489 1489 1490
1471 1476 1477 1477 1478 1479 1480 1483 1490 1494 1494 1488 1483 1484 1476 1470 1473 1479 1484 1488 1491 1494 1495 1495 1495 1495 1494 1493 1492 1491 1491 1490 1489 1488 1488 1487 1486 1485 1485 1484 1484 1484 1483 1483
1466 1475 1478 1478 1479 1479 1482 1484 1482 1487 1481 1484 1485 1477 1481 1475 1477 1481 1484 1488 1490 1492 1493 1493 1493 1493 1492 1491 1490 1489 1488 1487 1486 1485 1484 1483 1482 1481 1480 1479 1479 1478 1478 1477
1462 1474 1477 1479 1480 1482 1481 1480 1487 1491 1488 1483 1475 1475 1479 1479 1479 1480 1483 1485 1488 1490 1491 1491 1491 1491 1490 1489 1488 1487 1486 1484 1483 1482 1481 1480 1479 1477 1476 1475 1474 1473 1473 1472
1461 1472 1479 1479 1480 1481 1483 1483 1483 1484 1483 1487 1480 1477 1462 1469 1473 1478 1480 1483 1486 1488 1489 1489 1489 1488 1488 1487 1486 1484 1483 1482 1481 1479 1478 1477 1475 1474 1473 1472 1471 1470 1469 1468
1459 1468 1476 1477 1477 1477 1477 1477 1481 1487 1485 1483 1487 1481 1463 1466 1471 1475 1479 1482 1484 1486 1487 1487 1487 1486 1485 1484 1483 1482 1481 1480 1479 1477 1476 1474 1473 1472 1471 1470 1468 1467 1466 1465
1460 1469 1479 1482 1484 1481 1478 1475 1475 1480 1485 1484 1484 1481 1467 1468 1472 1476 1478 1481 1482 1484 1485 1485 1485 1484 1483 1482 1481 1480 1479 1478 1477 1475 1474 1473 1472 1470 1469 1468 1466 1465 1464 1463
1461 1465 1471 1473 1470 1474 1477 1475 1475 1481 1489 1482 1477 1475 1471 1471 1473 1475 1477 1479 1480 1481 1482 1482 1482 1482 1481 1480 1479 1478 1477 1476 1475 1474 1473 1471 1470 1469 1468 1466 1465 1464 1462 1461
1462 1467 1466 1467 1466 1468 1471 1472 1473 1479 1478 1480 1471 1469 1469 1470 1471 1473 1475 1477 1478 1479 1479 1480 1480 1479 1479 1478 1477 1476 1475 1475 1474 1473 1472 1470 1469 1468 1467 1465 1464 1463 1462 1460
1462 1466 1467 1470 1467 1468 1470 1468 1469 1472 1473 1473 1472 1471 1466 1467 1469 1472 1473 1474 1475 1476 1476 1477 1477 1477 1477 1476 1475 1474 1474 1473 1472 1471 1470 1470 1469 1468 1466 1465 1464 1463 1462 1461
1463 1466 1470 1470 1466 1469 1472 1462 1463 1464 1464 1468 1471 1469 1465 1467 1468 1470 1471 1472 1472 1473 1473 1474 1474 1474 1474 1474 1473 1473 1472 1472 1471 1470 1470 1469 1468 1467 1467 1466 1465 1464 1463 1463
1462 1465 1469 1468 1471 1477 1459 1452 1452 1457 1459 1461 1461 1461 1462 1464 1466 1467 1468 1469 1469 1470 1471 1471 1472 1472 1472 1472 1472 1471 1471 1471 1470 1470 1469 1469 1468 1468 1468 1467 1466 1466 1465 1465
1461 1464 1467 1469 1467 1461 1453 1452 1452 1455 1455 1454 1457 1459 1461 1462 1464 1465 1466 1466 1467 1468 1468 1469 1469 1470 1470 1470 1470 1470 1470 1470 1470 1470 1470 1470 1470 1469 1469 1469 1468 1468 1468 1467
1462 1463 1467 1466 1468 1463 1453 1450 1450 1454 1454 1450 1452 1456 1459 1461 1465 1465 1464 1465 1465 1466 1466 1466 1467 1468 1468 1468 1469 1469 1469 1469 1470 1470 1470 1471 1471 1471 1471 1470 1470 1470 1469 1469
1464 1465 1467 1466 1465 1457 1450 1450 1452 1458 1455 1452 1453 1455 1458 1460 1462 1463 1463 1463 1463 1463 1464 1464 1465 1466 1467 1467 1468 1468 1469 1470 1470 1471 1472 1472 1472 1472 1472 1472 1472 1471 1471 1470
1460 1461 1461 1461 1465 1461 1450 1450 1453 1453 1453 1453 1454 1456 1457 1459 1459 1460 1460 1461 1461 1461 1462 1463 1463 1464 1465 1466 1467 1468 1469 1470 1471 1472 1473 1473 1473 1473 1473 1473 1473 1472 1472 1471
1452 1452 1452 1454 1455 1449 1448 1449 1450 1451 1452 1454 1455 1456 1456 1457 1458 1458 1458 1459 1459 1460 1460 1461 1462 1463 1464 1465 1467 1468 1469 1471 1472 1472 1473 1474 1474 1474 1474 1474 1473 1472 1472 1471
1445 1445 1447 1447 1446 1446 1447 1448 1449 1451 1452 1453 1453 1454 1455 1455 1456 1456 1456 1456 1457 1458 1458 1460 1461 1462 1463 1465 1466 1468 1469 1471 1472 1472 1473 1474 1474 1474 1474 1474 1473 1473 1472 1471
1441 1443 1445 1446 1444 1444 1445 1446 1448 1449 1450 1451 1452 1452 1453 1453 1453 1453 1453 1454 1454 1455 1456 1458 1459 1460 1462 1464 1465 1467 1469 1470 1471 1472 1473 1474 1474 1474 1474 1473 1473 1472 1472 1471
1439 1441 1443 1443 1441 1441 1443 1444 1446 1447 1448 1449 1450 1450 1451 1451 1451 1451 1451 1451 1452 1453 1454 1455 1457 1459 1460 1462 1464 1466 1467 1469 1470 1471 1472 1472 1473 1473 1473 1472 1472 1471 1471 1470